GEFSMW_500_meanwind_096.txt.gz
Wind_Speed
28 28 29 30 30 29 29 27 27 27 28 28 29 29 28 28 28 26 25 25 22 22 23 23 24 23 23 25 24 25 25 25 25 26 26 26 25 26 25 26 26 26 27
28 30 30 31 31 31 28 27 28 28 29 29 30 30 29 26 26 25 24 23 22 22 22 23 24 23 22 23 24 24 25 26 26 26 27 28 28 29 29 29 29 29 29
28 29 30 31 32 32 30 29 29 29 28 30 30 32 31 26 24 24 24 22 21 22 21 22 23 22 22 22 23 24 25 25 26 27 29 30 30 30 30 30 31 30 30
29 30 30 31 31 31 31 30 30 29 29 30 31 31 30 29 26 23 22 22 21 20 20 19 19 20 20 22 23 24 25 26 26 28 29 30 30 31 32 31 31 31 31
28 28 29 30 30 30 30 29 29 29 28 28 29 29 29 29 28 24 21 20 20 19 18 17 16 18 18 20 21 23 25 26 27 28 29 30 31 32 33 34 33 33 34
27 27 27 27 28 27 27 27 27 28 29 28 27 27 27 27 27 25 22 20 19 18 17 17 18 18 18 19 20 21 22 24 26 27 29 31 31 32 33 34 34 35 35
25 25 25 25 24 25 25 25 26 26 27 26 26 27 27 26 26 26 24 22 21 20 20 19 19 20 20 21 21 22 23 25 26 28 29 30 31 31 32 32 33 34 35
22 22 22 23 23 23 23 24 24 24 24 24 24 25 25 25 25 26 25 23 22 22 23 22 22 21 21 22 22 23 24 24 25 26 27 29 30 30 30 32 33 34 36
18 20 21 22 22 21 21 22 23 23 23 24 24 24 22 22 23 25 24 22 21 21 21 22 21 21 22 22 22 23 23 24 25 26 27 28 29 30 31 32 32 33 33
16 18 19 20 20 19 19 20 21 22 22 23 23 23 23 23 22 23 24 23 22 22 21 20 21 22 22 21 22 23 24 25 25 26 27 27 28 28 30 30 30 31 31
14 16 18 19 19 18 18 18 19 20 21 21 22 22 22 22 22 22 23 23 23 22 21 20 20 21 21 22 22 22 22 23 23 24 25 26 26 28 28 29 29 30 31
13 15 17 18 18 18 18 17 17 18 19 20 20 21 21 21 21 21 22 22 22 21 21 21 21 21 21 22 22 23 23 23 24 24 25 26 27 28 28 28 29 30 32
13 15 16 17 17 18 18 18 18 18 18 18 19 19 20 20 20 21 21 20 20 21 21 21 21 21 21 22 22 23 23 24 24 25 25 26 27 28 28 29 30 31 32
15 15 16 17 17 17 17 18 18 17 18 17 17 18 18 19 20 20 21 21 21 21 21 21 21 21 21 22 22 23 24 25 25 25 26 26 27 28 29 30 31 32 32
16 17 17 17 18 18 18 18 17 17 17 17 17 17 18 18 19 20 20 20 21 21 21 21 21 22 23 23 24 24 25 25 25 26 26 27 28 29 29 30 31 31 32
16 17 17 17 18 18 18 18 18 17 17 17 17 17 17 18 18 19 19 20 20 20 21 21 21 21 22 22 23 23 24 24 25 25 26 26 27 28 28 29 29 30 30
17 17 18 18 18 18 17 17 17 17 17 17 18 18 17 17 18 18 18 17 17 18 19 19 19 19 19 20 21 22 22 23 24 25 25 26 27 27 27 28 28 28 28
17 17 16 16 16 16 15 15 16 16 15 16 16 16 16 16 16 16 16 16 16 17 17 17 18 19 20 20 21 21 22 23 23 24 25 25 26 26 25 25 25 25 25
16 15 14 14 14 13 13 13 13 13 13 13 13 13 13 14 14 14 14 15 16 17 17 17 18 18 19 20 19 19 20 21 22 22 23 24 24 24 24 23 23 23 23
13 11 11 10 10 10 10 10 9 9 10 10 11 11 11 11 12 13 14 15 15 16 16 16 17 16 17 17 18 18 19 19 19 20 21 21 22 22 22 21 21 21 21
9 8 8 8 7 7 7 6 6 6 6 7 7 8 8 9 10 11 11 13 14 14 15 15 15 15 15 15 16 16 17 17 17 18 18 18 18 18 19 19 20 20 20
7 6 5 5 5 5 5 5 4 4 4 4 5 5 5 6 6 7 8 9 10 11 12 12 12 13 13 13 14 14 15 15 15 15 15 15 15 16 17 17 18 18 18
5 3 3 3 3 4 4 4 3 3 3 3 3 3 4 4 5 6 7 7 8 9 9 10 10 10 10 10 11 11 12 12 12 12 12 13 14 15 15 15 15 15 15
4 2 1 2 2 3 3 2 3 2 2 2 2 2 2 3 3 4 5 5 5 6 6 7 7 7 7 8 8 8 9 9 9 10 11 12 12 13 13 13 13 13 13
4 2 0 2 2 2 2 2 2 2 2 2 2 1 1 1 2 2 2 2 3 3 4 4 5 5 5 5 6 6 6 6 7 9 10 10 11 11 11 12 12 12 12
5 3 2 3 2 2 3 2 2 2 2 2 2 1 1 1 2 2 2 1 1 1 2 2 3 3 3 3 4 4 5 6 7 8 9 9 9 10 10 10 10 10 10

GEFSMW_500_meanwind_102.txt.gz
Wind_Speed
21 22 23 24 24 24 25 26 26 26 27 28 28 27 27 27 28 29 28 29 28 29 30 30 30 30 29 30 30 30 29 28 28 28 28 27 27 27 27 27 27 28 27
22 23 24 25 25 26 26 26 27 27 27 27 28 27 26 26 26 26 26 26 27 27 29 29 28 28 28 28 28 29 29 28 29 28 28 28 29 28 28 28 29 29 29
25 25 26 27 27 27 27 27 27 27 27 27 27 27 27 26 25 25 25 25 25 27 27 27 28 28 27 26 26 27 29 28 28 28 29 29 29 29 29 30 31 32 32
27 28 29 29 28 27 28 28 27 26 26 26 27 27 26 26 27 26 25 25 25 25 26 26 25 26 27 26 25 26 26 27 27 28 29 29 29 29 30 30 31 32 33
27 27 27 27 27 27 27 27 26 26 25 25 25 25 25 25 26 26 25 25 25 24 24 24 23 23 24 25 25 25 25 26 26 26 27 28 28 29 30 31 32 32 33
26 25 25 25 26 26 25 25 24 24 24 24 23 24 25 25 25 24 24 25 25 24 23 23 23 22 22 22 23 23 22 23 24 25 27 28 28 29 30 31 32 33 33
25 24 23 22 22 23 24 24 23 22 23 23 22 23 24 24 24 24 24 24 25 23 22 22 22 21 21 21 21 22 23 23 23 25 26 27 28 28 28 30 31 32 32
21 21 20 21 21 21 22 22 22 21 21 21 21 22 22 23 23 23 23 23 23 23 23 22 22 21 21 21 21 21 22 23 24 25 26 26 27 28 28 29 30 30 31
19 18 18 18 18 18 19 20 21 20 19 19 19 20 21 21 22 21 21 21 22 23 22 22 22 22 21 22 23 22 22 23 25 26 27 27 27 28 29 30 30 30 30
18 18 18 17 17 17 18 18 19 19 18 18 18 18 19 19 20 21 21 20 20 21 21 20 21 21 20 21 23 23 23 23 24 25 26 27 27 28 29 30 30 30 30
18 18 18 17 17 17 17 18 18 18 18 18 18 18 18 18 19 20 20 20 20 20 20 20 20 21 21 21 22 22 23 23 24 25 26 27 27 28 28 29 29 30 31
18 18 18 18 18 18 18 18 17 18 18 18 18 18 18 18 18 19 20 19 20 20 19 19 20 21 22 22 22 22 23 23 24 24 25 26 27 27 28 29 30 30 31
19 19 19 18 18 19 19 19 19 19 19 19 19 18 18 18 18 19 19 19 19 19 18 19 20 21 22 22 22 22 22 22 23 24 24 25 26 28 29 29 30 30 31
21 21 20 20 20 20 20 20 20 20 20 19 19 18 18 18 18 19 19 20 19 19 19 20 21 21 21 21 21 22 22 23 24 24 25 26 27 27 28 28 29 30 31
22 22 22 22 22 22 21 21 21 20 20 19 19 18 18 19 19 19 19 19 19 19 20 21 21 22 22 22 22 22 23 24 24 25 26 26 27 27 28 29 30 31 32
22 23 23 23 23 22 22 22 21 21 20 20 19 19 18 19 19 20 20 20 20 20 21 21 22 22 22 22 22 23 23 24 24 25 25 26 26 27 28 29 30 31 31
24 24 23 23 23 22 22 21 21 20 20 19 18 17 17 17 18 18 18 19 20 21 21 21 21 21 22 22 22 23 23 23 23 24 24 25 25 26 27 28 29 29 29
23 23 22 22 21 20 20 19 19 18 18 17 16 16 16 16 16 15 16 17 17 17 18 18 18 19 19 19 20 20 21 21 22 22 23 24 24 25 26 27 28 28 28
22 21 20 20 19 18 17 16 15 15 15 14 14 13 13 14 14 14 14 15 15 16 16 16 17 17 17 18 18 18 19 20 20 21 22 22 23 24 24 25 25 26 26
20 19 19 18 16 15 14 13 12 12 12 12 11 11 12 12 13 13 13 14 14 14 14 14 15 16 16 16 17 17 18 19 19 20 20 21 21 22 22 22 23 23 24
17 17 16 15 12 11 10 10 9 10 10 10 9 9 10 10 11 11 12 13 12 12 13 13 13 14 14 15 15 16 16 17 18 18 19 19 19 19 19 19 19 20 20
15 14 12 10 9 8 7 7 7 7 7 7 7 7 7 7 8 8 9 10 10 11 11 11 11 12 13 13 13 14 14 15 15 16 16 16 16 16 16 17 17 17 17
12 9 8 6 5 5 4 4 4 4 4 4 5 5 5 5 5 5 5 6 7 7 7 8 8 9 10 11 12 12 11 12 12 12 12 12 13 13 14 14 15 15 16
7 5 3 3 3 3 3 3 3 4 4 4 3 3 3 2 2 2 2 2 3 3 4 5 6 6 7 8 8 8 8 8 9 9 10 11 12 12 13 13 13 14 13
4 2 0 1 1 2 3 3 3 4 4 4 3 3 2 1 0 0 1 1 2 2 3 3 4 4 4 5 5 6 6 6 7 8 9 10 11 11 11 11 11 11 11
4 2 2 2 3 4 4 4 4 4 4 3 3 3 2 2 2 2 2 3 3 3 3 3 3 4 4 4 4 5 5 6 7 8 9 9 10 10 10 9 9 10 10

GEFSMW_500_meanwind_108.txt.gz
Wind_Speed
23 23 24 25 25 25 26 27 28 28 28 27 27 27 27 27 28 29 30 31 31 30 30 31 32 31 31 32 32 32 30 31 32 32 32 31 31 31 31 31 31 30 29
23 24 24 25 25 26 27 28 28 28 28 28 28 27 27 28 28 28 28 29 30 30 31 30 31 32 32 31 31 31 30 31 32 32 33 32 32 32 32 32 32 32 32
23 23 24 25 26 27 28 28 28 28 28 28 28 28 28 28 28 27 27 28 29 30 31 30 32 32 30 30 31 30 30 29 29 30 31 32 33 33 33 33 34 34 34
22 23 24 24 25 27 28 28 28 28 28 28 28 28 28 28 28 28 27 27 28 28 29 30 30 30 31 30 30 30 30 30 29 29 30 31 33 34 34 34 33 34 34
22 23 23 24 25 26 26 27 27 27 27 28 28 28 28 27 27 27 27 27 27 28 28 29 28 29 30 30 30 29 29 29 29 30 31 32 33 33 34 34 34 34 36
21 22 22 23 24 24 25 25 25 25 26 27 27 27 27 26 26 26 27 28 27 27 28 28 28 29 29 30 29 29 29 29 29 30 30 31 32 33 32 33 34 34 34
19 20 21 22 23 23 23 23 23 23 23 24 25 26 26 26 25 25 26 27 27 27 27 28 28 29 29 29 29 30 29 30 30 29 30 30 31 32 32 32 33 34 34
20 21 21 22 21 21 21 22 22 22 22 23 24 25 26 26 26 25 25 25 26 26 26 26 27 28 28 29 29 28 28 29 29 29 29 30 31 31 31 31 31 32 33
20 21 21 21 21 20 20 21 22 21 22 23 23 24 25 25 25 25 24 25 25 25 26 25 25 25 26 27 28 27 27 28 28 29 30 30 31 32 32 32 31 31 32
20 21 21 21 20 20 20 21 21 21 21 22 22 23 23 23 23 23 23 23 24 24 25 23 22 23 25 26 26 28 27 26 27 28 29 30 31 31 32 31 31 32 32
21 21 21 21 21 20 20 20 20 20 20 21 21 21 21 22 22 22 22 22 22 23 24 23 22 23 24 25 26 27 27 27 26 26 27 27 29 30 31 32 33 34 34
21 21 21 21 21 21 20 20 19 20 20 20 20 21 21 21 21 21 21 21 21 21 22 23 23 23 24 24 25 26 26 26 25 26 26 27 28 29 30 30 31 32 33
21 21 21 21 21 21 20 20 20 20 20 20 20 20 21 21 21 21 21 21 21 21 21 21 22 22 23 23 24 24 25 25 25 25 26 28 28 28 29 29 30 31 32
22 22 23 22 22 21 21 21 21 21 20 20 20 21 21 21 21 21 21 21 21 22 22 22 21 22 22 22 23 23 24 24 24 26 26 26 27 28 28 29 30 30 31
23 23 23 22 22 22 21 21 21 21 21 21 21 20 21 21 20 20 21 20 20 21 22 22 22 22 21 21 22 22 23 24 24 25 26 27 27 27 28 29 29 30 30
23 23 22 22 22 22 21 21 21 21 21 20 21 20 21 21 20 19 20 20 19 19 20 21 21 21 21 21 21 22 23 23 23 24 25 25 26 27 27 27 28 28 29
23 23 22 21 21 20 20 20 20 20 20 20 19 19 19 19 18 18 18 18 17 17 17 17 17 18 18 19 19 19 20 21 21 22 23 23 23 24 24 25 26 26 27
22 22 21 20 19 20 19 19 19 18 17 17 17 17 17 17 16 16 15 16 15 15 14 14 15 15 15 15 16 17 17 18 19 19 20 20 21 22 23 23 24 24 25
21 21 19 19 19 18 18 17 16 15 14 14 14 14 14 13 13 13 14 13 13 13 13 13 14 14 14 14 15 15 15 16 16 17 17 18 19 19 20 20 21 22 22
19 18 18 17 16 16 15 14 13 12 11 11 11 10 10 10 10 11 11 11 11 11 11 11 11 11 11 12 12 12 13 13 14 15 15 16 17 17 18 18 19 19 19
16 15 14 13 13 13 12 11 10 9 9 9 9 8 8 9 8 9 9 9 9 9 9 9 9 9 9 9 9 10 11 11 12 13 14 14 15 15 15 16 16 16 16
13 12 11 11 10 9 9 8 7 7 7 7 6 7 7 7 7 7 7 7 6 7 7 7 7 8 8 8 8 8 9 10 10 11 12 12 12 13 13 13 14 14 14
11 10 8 7 7 7 5 5 4 4 5 5 5 5 4 4 5 5 4 4 4 4 5 5 5 6 6 7 7 8 9 9 9 9 9 9 10 10 11 11 12 12 12
8 6 5 4 4 2 2 2 2 3 3 4 4 3 3 3 3 2 2 2 2 2 3 3 4 4 5 6 6 6 7 6 6 6 7 8 8 9 9 10 10 10 11
6 4 3 2 1 0 1 2 3 4 4 5 5 4 4 3 3 2 2 1 1 1 1 1 1 1 2 2 2 3 3 3 3 4 5 6 6 7 8 8 9 9 9
5 4 3 2 2 2 3 4 5 6 6 6 6 5 5 5 4 4 4 3 3 3 3 3 3 3 3 3 3 3 3 3 4 4 4 5 5 6 7 7 7 8 8

GEFSMW_500_meanwind_114.txt.gz
Wind_Speed
20 21 22 22 23 24 24 25 25 25 26 27 27 28 28 29 30 30 30 31 31 32 32 32 32 32 31 31 30 30 31 31 30 29 30 31 31 30 29 30 29 28 28
19 20 21 22 23 24 25 26 26 27 28 28 29 30 30 30 31 31 31 32 32 32 32 32 32 32 32 31 30 29 30 30 31 31 31 31 32 31 31 32 32 31 31
18 19 21 22 23 25 26 27 28 29 30 30 31 31 31 31 31 31 32 32 32 32 32 32 31 31 31 31 31 31 31 31 32 33 33 32 31 31 32 32 32 32 32
19 20 21 22 24 25 26 27 28 29 30 31 32 32 32 32 32 32 32 31 32 32 32 31 32 31 31 30 30 31 32 32 33 33 33 33 32 32 33 32 32 33 34
20 21 22 24 25 26 26 27 28 29 30 31 31 31 32 31 31 31 31 31 32 31 31 32 31 31 30 30 31 32 32 32 32 33 32 32 32 32 32 31 31 32 34
19 21 22 23 24 25 25 26 28 29 29 30 31 31 31 31 31 31 31 31 30 29 30 30 31 31 30 30 30 31 31 32 32 32 32 32 33 32 32 31 31 32 32
21 21 22 23 24 24 25 26 27 28 28 28 29 29 29 29 29 30 31 30 30 29 28 29 29 29 30 29 30 30 31 30 31 31 32 32 32 32 31 31 30 31 32
21 22 22 23 24 25 25 26 26 27 27 27 28 28 28 28 28 29 30 29 29 28 28 28 28 28 28 28 28 28 29 29 29 29 29 30 30 30 30 30 31 32 32
21 22 23 24 25 25 26 26 26 26 26 26 26 26 26 26 27 28 28 28 28 28 28 27 27 27 27 27 27 28 27 27 27 28 28 29 29 30 30 30 30 30 31
22 22 23 24 24 25 26 26 26 26 26 26 25 26 26 26 26 26 26 26 26 26 27 27 27 27 27 26 26 27 27 27 27 27 27 28 27 28 29 28 28 28 29
22 23 23 24 25 26 26 26 26 25 25 25 24 24 25 25 25 25 25 25 26 25 26 25 26 26 26 26 25 25 26 26 26 27 27 27 28 28 29 28 27 27 28
23 23 24 24 25 25 26 26 25 24 24 24 23 23 23 24 24 25 25 25 25 25 25 25 25 25 25 25 25 25 25 24 24 25 26 26 27 27 27 27 26 26 27
24 24 25 25 26 25 25 25 24 24 23 23 23 23 23 23 23 23 23 22 23 23 23 23 24 24 23 23 24 24 24 24 23 24 25 25 26 26 25 25 25 25 25
24 25 25 25 26 25 25 24 24 24 23 23 23 23 23 22 21 21 21 22 22 22 22 22 23 23 22 22 23 22 22 22 22 23 23 23 22 22 22 23 23 23 23
24 25 25 25 25 25 24 25 25 24 23 22 22 22 22 21 21 21 21 20 20 20 20 20 20 21 21 21 21 20 20 20 20 20 20 19 19 19 20 21 21 22 22
25 25 25 25 24 24 24 25 24 23 22 21 20 20 20 19 19 20 20 19 18 17 17 17 17 18 17 17 18 18 17 17 17 17 17 18 18 18 18 19 20 21 21
24 24 24 24 24 24 24 23 22 21 20 19 19 18 18 17 17 18 18 17 17 16 16 16 15 14 15 15 15 15 16 16 16 16 16 17 17 17 17 18 18 18 19
23 23 23 23 22 22 21 20 19 18 18 18 17 17 16 16 16 16 16 16 16 15 15 15 15 14 14 14 13 13 13 13 13 14 14 15 15 16 16 16 17 17 18
22 22 21 21 20 19 19 18 17 16 16 15 15 15 15 14 15 14 14 14 14 14 13 13 13 12 12 12 11 11 11 11 11 11 12 12 12 12 13 14 15 15 16
20 20 19 18 18 17 16 16 15 14 14 13 13 13 13 13 12 12 11 11 11 11 11 11 10 10 9 9 9 9 9 9 9 10 10 10 10 11 11 12 13 13 14
18 17 16 16 15 14 14 13 12 12 11 11 11 11 11 10 9 9 8 8 8 8 8 8 8 7 7 6 7 7 7 7 8 8 8 9 9 9 10 11 12 12 13
15 14 14 14 13 12 11 10 10 9 10 10 9 8 8 7 6 5 6 6 6 5 5 5 5 5 5 5 5 5 5 6 6 6 7 7 8 9 9 10 11 11 11
14 13 13 12 11 10 9 9 9 8 8 7 5 5 4 4 4 4 3 3 3 3 2 2 2 2 3 3 3 4 4 4 4 5 5 6 7 8 8 9 9 9 9
13 12 11 10 9 8 7 6 6 5 4 3 3 2 2 2 1 1 1 1 1 1 1 1 1 2 2 3 3 3 3 3 4 4 5 6 6 6 7 8 8 9 9
12 10 9 8 7 6 4 3 3 2 1 1 1 1 2 3 3 3 3 2 2 2 2 2 3 3 3 3 3 2 3 3 4 4 5 5 5 6 6 7 8 8 9
10 9 7 6 5 4 3 2 2 2 2 2 3 4 4 4 4 4 5 4 4 4 4 3 4 5 5 5 5 5 5 5 5 5 5 6 6 7 8 8 9 9 9